COSMOS 2526

Last updated on Thu Aug 13 2026 00:03:01 GMT+0000 (Coordinated Universal Time)

1 43432U 18037A 26223.74208063 -.00000362 00000+0 00000+0 0 9990 2 43432 0.0257 103.6135 0000478 164.7665 87.0109 1.00266552 30516
UTC large
Height (km)
Speed (km/s)
/
Latitude / Longitude
Inclination (degrees)
Orbital Period (minutes)
Azimuth
Elevation
Range (km)
Doppler Factor

Next 0 passes for location: London (51.5072 / 0.1276)

No passes found over London.
COSMOS 2526